West Memphis, AR

7:21 AM CST on November 17, 2019 (GMT -0600)
West Memphis Municipal

Weather History for KAWM - August, 2019

Change the Weather History Date:

Thursday, August 29, 2019

  Actual Average Record
Temperature  
Mean Temperature 76 °F -  
Max Temperature 89 °F 88 °F 97 °F (1983)
Min Temperature 63 °F 67 °F 53 °F (1986)
Cooling Degree Days 10    
Growing Degree Days 26 (Base 50)    
Moisture  
Dew Point 63 °F    
Average Humidity 72    
Maximum Humidity 100    
Minimum Humidity 35    
Precipitation  
Precipitation 0.00 in - - ()
Sea Level Pressure  
Sea Level Pressure 30.06 in    
Wind  
Wind Speed 2 mph (South)    
Max Wind Speed 10 mph    
Max Gust Speed -    
Visibility 10 miles    
Events      
Averages and records for this station are not official NWS values.
T = Trace of Precipitation, MM = Missing Value Source: NWS Daily Summary

Daily Weather History Graph

Daily Weather History Graph

Search for Another Location

Airport or City:

Astronomy

Aug. 29, 2019 Rise Set
Actual Time 6:31 AM CDT 7:32 PM CDT
Civil Twilight 6:05 AM CDT 7:58 PM CDT
Nautical Twilight 5:34 AM CDT 8:28 PM CDT
Astronomical Twilight 5:02 AM CDT 9:00 PM CDT
Moon 5:21 AM CDT (8/29) 7:25 PM CDT (8/29)
Length of Visible Light 13h 52m
Length of Day
13h 00m
Waning Crescent, 1% of the Moon is Illuminated
Aug 29
Waning Crescent
Aug 30
New
Sep 5
First Quarter
Sep 13
Full
Sep 21
Last Quarter

Hourly Weather History & Observations

Time (CDT) Temp. Heat Index Dew Point Humidity Pressure Visibility Wind Dir Wind Speed Gust Speed Precip Events Conditions
12:53 AM 66.9 °F - 64.0 °F 90% 30.06 in 10.0 mi Calm Calm - N/A   Clear
1:53 AM 66.0 °F - 64.0 °F 93% 30.05 in 10.0 mi Calm Calm - N/A   Clear
2:53 AM 64.9 °F - 64.0 °F 97% 30.04 in 10.0 mi Calm Calm - N/A   Clear
3:53 AM 63.0 °F - 63.0 °F 100% 30.04 in 9.0 mi Calm Calm - N/A   Clear
4:53 AM 63.0 °F - 63.0 °F 100% 30.06 in 8.0 mi Calm Calm - N/A   Clear
5:53 AM 64.0 °F - 64.0 °F 100% 30.07 in 9.0 mi Calm Calm - N/A   Clear
6:53 AM 63.0 °F - 62.1 °F 97% 30.08 in 6.0 mi Calm Calm - N/A   Clear
7:53 AM 71.1 °F - 66.0 °F 84% 30.10 in 10.0 mi Calm Calm - N/A   Clear
9:53 AM 81.0 °F 82.2 °F 63.0 °F 54% 30.11 in 10.0 mi SE 6.9 mph - N/A   Unknown
11:53 AM 86.0 °F 85.7 °F 60.1 °F 41% 30.11 in 10.0 mi SSE 5.8 mph - N/A   Clear
12:53 PM 87.1 °F 85.7 °F 55.9 °F 35% 30.09 in 10.0 mi Variable 3.5 mph - N/A   Clear
1:53 PM 88.0 °F 87.1 °F 59.0 °F 37% 30.07 in 10.0 mi South 10.4 mph - N/A   Clear
2:53 PM 88.0 °F 88.7 °F 63.0 °F 43% 30.06 in 10.0 mi SSW 6.9 mph - N/A   Clear
3:53 PM 88.0 °F 88.4 °F 62.1 °F 42% 30.05 in 10.0 mi SSW 4.6 mph - N/A   Clear
4:53 PM 87.1 °F 87.8 °F 63.0 °F 44% 30.03 in 10.0 mi SSW 3.5 mph - N/A   Clear
5:53 PM 84.9 °F 87.1 °F 66.0 °F 53% 30.02 in 10.0 mi SSW 3.5 mph - N/A   Clear
6:53 PM 79.0 °F - 64.9 °F 62% 30.03 in 10.0 mi SW 3.5 mph - N/A   Clear
7:53 PM 73.9 °F - 64.9 °F 73% 30.03 in 10.0 mi SSW 3.5 mph - N/A   Clear
8:53 PM 71.1 °F - 64.9 °F 81% 30.04 in 10.0 mi Calm Calm - N/A   Clear
9:53 PM 70.0 °F - 66.0 °F 87% 30.05 in 10.0 mi Calm Calm - N/A   Clear
11:53 PM 66.9 °F - 66.9 °F 100% 30.06 in 10.0 mi Calm Calm - N/A   Clear